Regional Weather Roundup
Issued by NWS Albany, NY

Home | Current Version | Previous Version | Text Only | Print | Product List | Glossary On
Versions: 1 2 3 4 5 6 7 8 9 10 11 12 13 14 15 16 17 18 19 20 21 22 23 24 25 26 27 28 29 30 31 32 33 34 35 36 37 38 39 40 41 42 43 44 45 46 47 48 49 50
000
ASUS41 KALY 270110
RWRALY

NEW YORK STATE HOURLY WEATHER ROUNDUP
NATIONAL WEATHER SERVICE ALBANY NY
900 PM EDT MON SEP 26 2016

NOTE: "FAIR" INDICATES FEW OR NO CLOUDS BELOW 12,000 FEET WITH NO
SIGNIFICANT WEATHER AND/OR NO OBSTRUCTIONS TO VISIBILITY.

NYZ032-033-038>043-046>054-057>066-NYZ062>081-082-084-270200-
EAST


CITY           SKY/WX    TMP DP  RH WIND       PRES   REMARKS
ALBANY         PTCLDY    65  48  54 S12G20    29.96F
GLENS FALLS    CLOUDY    51  47  86 CALM      29.95F
POUGHKEEPSIE   CLOUDY    65  50  58 S7        30.02S
NEWBURGH       CLOUDY    66  52  59 S12       30.05S
MONTGOMERY     CLOUDY    66  51  58 S6        30.02F
WHITE PLAINS   CLOUDY    65  51  60 S8        30.05S
ISLIP          CLOUDY    66  52  60 S12       30.07S
NEW YORK CITY  CLOUDY    70  54  56 S10G21    30.05R
CENTRAL PARK   CLOUDY    67  52  58 VRB7      30.08S
$$

NYZ005>009-017-018-044>046-055-056-270200-
CENTRAL


CITY           SKY/WX    TMP DP  RH WIND       PRES   REMARKS
FULTON         LGT RAIN  64  57  78 S8        29.89R
SYRACUSE       LGT RAIN  64  54  69 S13       29.90R
ROME           LGT RAIN  62  57  83 SE6       29.94R
ELMIRA         CLOUDY    63  56  78 S7        29.93F
BINGHAMTON     CLOUDY    58  51  78 S13G18    29.97F
MONTICELLO     CLOUDY    61  50  67 S6        30.05S
$$

NYZ026>034-041>043-087-270200-
NORTH


CITY           SKY/WX    TMP DP  RH WIND       PRES   REMARKS
WATERTOWN      LGT RAIN  63  54  72 S8        29.85S
FORT DRUM      NOT AVBL
OGDENSBURG     LGT RAIN  62  54  77 S8        29.84F
MASSENA        LGT RAIN  58  51  78 CALM      29.87F
SARANAC LAKE   CLOUDY    55  45  68 SW8       29.91F
PLATTSBURGH    MOCLDY    60  44  55 S6        29.91R
$$

NYZ001>004-010>016-019>021-085-270200-
WEST


CITY           SKY/WX    TMP DP  RH WIND       PRES   REMARKS
NIAGARA FALLS  MOCLDY    58  48  69 W8        29.90R
BUFFALO        CLOUDY    60  52  74 W9        29.91R
DUNKIRK        MOCLDY    60  58  92 S9        29.93R
JAMESTOWN      MOCLDY    57  54  88 SW13      29.96R
WELLSVILLE     LGT RAIN  60  57  89 SW9       29.97R
ROCHESTER      CLOUDY    63  60  90 W5        29.89R
PENN YAN       LGT RAIN  62  57  83 S12       29.92S
$$

             KEY
       WCI = WIND CHILL INDEX
       VSB = VISIBILITY
       HX  = HEAT INDEX
$$



USA.gov is the U.S. government's official web portal to all federal, state and local government web resources and services.